Regional Weather Roundup
Issued by NWS

Home | Current Version | Previous Version | Graphics & Text | Print | Product List | Glossary On
Versions: 1 2 3 4 5 6 7 8 9 10 11 12 13 14 15 16 17 18 19 20 21 22 23 24 25 26 27 28 29 30 31 32 33 34 35 36 37 38 39 40 41 42 43 44 45 46 47 48 49 50
000
ASUS43 KMKX 301820
RWRWI

WISCONSIN REGIONAL WEATHER ROUNDUP
NATIONAL WEATHER SERVICE MILWAUKEE/SULLIVAN WI
100 PM CDT MON MAR 30 2015

NOTE: "FAIR" INDICATES FEW OR NO CLOUDS BELOW 12,000 FEET WITH NO
SIGNIFICANT WEATHER AND/OR OBSTRUCTIONS TO VISIBILITY.

WIZ001-002-006>008-014>016-023>028-301900-
NORTHWEST WISCONSIN

CITY           SKY/WX    TMP DP  RH WIND       PRES   REMARKS
SUPERIOR ARPT  CLOUDY    50  25  37 SW6       29.90F
6HR MIN TEMP:  30; 6HR MAX TEMP:  50;

ASHLAND        PTSUNNY   53  23  31 VRB6      29.91F
6HR MIN TEMP:  33; 6HR MAX TEMP:  54;

HAYWARD        CLOUDY    48  26  42 MISG      29.92F
6HR MIN TEMP:  24; 6HR MAX TEMP:  48;

SIREN          LGT RAIN  41  35  76 CALM      29.94F
6HR MIN TEMP:  32; 6HR MAX TEMP:  44; 6HR PCP:  0.01;

CUMBERLAND     LGT RAIN  39  34  81 CALM      29.95F
RICE LAKE      RAIN      42  35  76 CALM      29.97F
6HR MIN TEMP:  30; 6HR MAX TEMP:  45;

CHETEK         LGT RAIN  42  36  78 NW3       29.96F
6HR MIN TEMP:  29; 6HR MAX TEMP:  46;

LADYSMITH      CLOUDY    51  27  39 W8        29.95F
6HR MIN TEMP:  29; 6HR MAX TEMP:  51;

EAU CLAIRE     LGT RAIN  45  37  73 NE10      29.95F
6HR MIN TEMP:  35; 6HR MAX TEMP:  45; 6HR PCP: TRACE;

MENOMONIE      CLOUDY    47  35  63 N6        29.96F
6HR MIN TEMP:  32; 6HR MAX TEMP:  47;

NEW RICHMOND   CLOUDY    46  33  61 NE6       29.94F
6HR MIN TEMP:  30; 6HR MAX TEMP:  46;

OSCEOLA        LGT RAIN  46  35  67 E6        29.96F
6HR MIN TEMP:  29; 6HR MAX TEMP:  46;

$$

WIZ003>005-009-010-017-018-301900-
NORTH CENTRAL WISCONSIN

CITY           SKY/WX    TMP DP  RH WIND       PRES   REMARKS
MANITOWISH WTR SUNNY     44  24  44 NW12G20   29.89F
6HR MIN TEMP:  29; 6HR MAX TEMP:  45;

ARBOR VITAE    SUNNY     49  24  37 NW12G20   29.90S
6HR MIN TEMP:  32; 6HR MAX TEMP:  49;

WOODRUFF       SUNNY     49  24  37 NW12G20   29.90S
6HR MIN TEMP:  32; 6HR MAX TEMP:  49;

RHINELANDER    SUNNY     49  21  33 NW15G24   29.91S
6HR MIN TEMP:  31; 6HR MAX TEMP:  50;

EAGLE RIVER    SUNNY     47  19  32 W17G24    29.89S
6HR MIN TEMP:  32; 6HR MAX TEMP:  47;

LAND O LAKES   SUNNY     45  22  40 N14G20    29.89F
6HR MIN TEMP:  31; 6HR MAX TEMP:  46;

PHILLIPS       CLOUDY    48  22  37 W9        29.91F
6HR MIN TEMP:  30; 6HR MAX TEMP:  49;

TOMAHAWK       MOSUNNY   51  22  32 NW13G18   29.91F
6HR MIN TEMP:  32; 6HR MAX TEMP:  51;

MEDFORD        CLOUDY    49  29  45 W14G21    29.93S
6HR MIN TEMP:  33; 6HR MAX TEMP:  49;

MERRILL        MOSUNNY   51  24  34 W13G22    29.91S
6HR MIN TEMP:  31; 6HR MAX TEMP:  52;

$$

WIZ029-030-035-036-043>047-301900-
CENTRAL WISCONSIN

CITY           SKY/WX    TMP DP  RH WIND       PRES   REMARKS
WAUSAU         MOSUNNY   51  23  33 NW12      29.91R
6HR MIN TEMP:  33; 6HR MAX TEMP:  53;

MOSINEE        SUNNY     50  27  40 W15       29.94S
MARSHFIELD     CLOUDY    52  29  41 W10       29.95S
6HR MIN TEMP:  33; 6HR MAX TEMP:  53;

STEVENS POINT  PTSUNNY   50  26  38 W8G16     29.95R
6HR MIN TEMP:  32; 6HR MAX TEMP:  50;

WAUPACA        MOSUNNY   56  22  27 NW14      29.94S
6HR MIN TEMP:  38; 6HR MAX TEMP:  57;

WAUTOMA        MOSUNNY   56  28  34 NW13G21   29.95S
6HR MIN TEMP:  35; 6HR MAX TEMP:  56;

WISC RAPIDS    CLOUDY    54  26  34 NW9       29.96S
6HR MIN TEMP:  32; 6HR MAX TEMP:  54;

CAMP DOUGLAS   CLOUDY    54  30  40 NW10      29.97R
$$

WIZ011>013-019>022-031-037>040-048>050-301900-
NORTHEAST WISCONSIN

CITY           SKY/WX    TMP DP  RH WIND       PRES   REMARKS
ANTIGO         SUNNY     48  25  40 NW16G23   29.91S
6HR MIN TEMP:  32; 6HR MAX TEMP:  48;

SHAWANO        SUNNY     55  24  30 NW13G22   29.92F
6HR MIN TEMP:  37; 6HR MAX TEMP:  55;

OCONTO         SUNNY     53  23  31 NW12G21   29.90S
6HR MIN TEMP:  34; 6HR MAX TEMP:  53;

STURGEON BAY   SUNNY     46  28  49 N3        29.95R
6HR MIN TEMP:  36; 6HR MAX TEMP:  46;

GREEN BAY      SUNNY     54  30  40 W14       29.93S
6HR MIN TEMP:  36; 6HR MAX TEMP:  54;

MANITOWOC      SUNNY     53  27  36 NW17G26   29.94R
6HR MIN TEMP:  37; 6HR MAX TEMP:  53;

APPLETON       PTSUNNY   54  23  30 W12G18    29.94S
CLINTONVILLE   SUNNY     54  23  30 NW10G17   29.92F
OSHKOSH        PTSUNNY   54  28  36 W13       29.94F
6HR MIN TEMP:  35; 6HR MAX TEMP:  55;

$$

WIZ032>034-041-042-053>061-301900-
SOUTHWEST WISCONSIN

CITY           SKY/WX    TMP DP  RH WIND       PRES   REMARKS
LA CROSSE      CLOUDY    53  28  38 N5        29.98S
6HR MIN TEMP:  34; 6HR MAX TEMP:  53;

SPARTA         CLOUDY    51  28  41 CALM      29.98F
6HR MIN TEMP:  32; 6HR MAX TEMP:  51;

VIROQUA        CLOUDY    51  29  44 NW7       29.97S
6HR MIN TEMP:  33; 6HR MAX TEMP:  51;

BOSCOBEL       PTSUNNY   58  29  33 VRB6      29.98F
6HR MIN TEMP:  29; 6HR MAX TEMP:  59; 6HR PCP: TRACE;

PRAIRIE DU CHI CLOUDY    60  29  30 SW6       29.96F
6HR MIN TEMP:  30; 6HR MAX TEMP:  60;

PLATTEVILLE    MOSUNNY   61  33  35 SW16      29.98F
6HR MIN TEMP:  33; 6HR MAX TEMP:  61;

$$

WIZ056-057-062-063-064-067-068-301900-
SOUTH CENTRAL WISCONSIN

CITY           SKY/WX    TMP DP  RH WIND       PRES   REMARKS
REEDSBURG      CLOUDY    53  31  42 W14       29.97R
6HR MIN TEMP:  28; 6HR MAX TEMP:  54;

BARABOO/DELLS  PTSUNNY   53  27  36 W13G18    29.97R
6HR MIN TEMP:  35; 6HR MAX TEMP:  55;

LONE ROCK      CLOUDY    56  27  32 W15       29.98S
6HR MIN TEMP:  30; 6HR MAX TEMP:  57;

MINERAL POINT  MOSUNNY   54  28  37 W3        29.98F
MADISON        PTSUNNY   57  28  33 W9        29.96F
6HR MIN TEMP:  35; 6HR MAX TEMP:  57;

MIDDLETON      PTSUNNY   59  25  27 W10G16    29.97S
WATERTOWN      MOSUNNY   56  30  36 W13       29.95F
6HR MIN TEMP:  33; 6HR MAX TEMP:  57;

MONROE         FAIR      55  32  41 W14G21    29.98S
JANESVILLE     MOSUNNY   57  27  30 W16       29.98F
$$

WIZ051-052-058>065-066-070>072-301900-
SOUTHEAST WISCONSIN

CITY           SKY/WX    TMP DP  RH WIND       PRES   REMARKS
MILWAUKEE      PTSUNNY   57  25  29 NW13G21   29.97F
6HR MIN TEMP:  37; 6HR MAX TEMP:  57;

WAUKESHA       PTSUNNY   54  28  37 W12G21    29.97F
MILWAUKEE/TIMM MOSUNNY   55  25  30 W13G20    29.97F
RACINE         PTSUNNY   58  27  30 W13       29.99F
6HR MIN TEMP:  34; 6HR MAX TEMP:  58;

BURLINGTON     MOSUNNY   56  29  34 W18       29.97F
6HR MIN TEMP:  29; 6HR MAX TEMP:  56;

KENOSHA        MOSUNNY   58  32  37 W17       29.98F
6HR MIN TEMP:  32; 6HR MAX TEMP:  58;

FOND DU LAC    PTSUNNY   54  30  40 W9        29.94F
6HR MIN TEMP:  33; 6HR MAX TEMP:  55;

SHEBOYGAN      SUNNY     53  29  39 W14       29.95S
6HR MIN TEMP:  37; 6HR MAX TEMP:  53;

WEST BEND      SUNNY     54  25  32 W13G22    29.95F
JUNEAU         MOSUNNY   53  32  44 SW12      29.97S
6HR MIN TEMP:  29; 6HR MAX TEMP:  53;

$$

LSZ147-162-301900-
LAKE SUPERIOR

STATION/POSITION TIME  TEMP    WIND        PRES    WAVE
                       AIR SEA DIR/SP/G            HT/PER
                 (UTC) (F)     (DEG/KT/KT) (MB)    (FT/S)
DEVILS ISLAND    1800   41     220/  8/ 11 1013.2F
PORT WING        1700   44     290/  4/  5 1013.9S
SAXON HARBOR     1700   44        CALM     1013.9
$$

LMZ867-665-643>646-301900-
LAKE MICHIGAN

STATION/POSITION TIME  TEMP    WIND        PRES    WAVE
                       AIR SEA DIR/SP/G            HT/PER
                 (UTC) (F)     (DEG/KT/KT) (MB)    (FT/S)


USA.gov is the U.S. government's official web portal to all federal, state and local government web resources and services.